Theta_e
323 321 320 321 320 321 325 325 327 332 331 328 331 331 324 324 327 329 331 331 332 329 332 332 331 332 332 336 338 338 336 338 339 342 345 339 338 339 339 339 338 338 337 336 336 336 334 333 331 331 329 328 330 334 336 339 338 338 339 339 339 338 337 336 333 330 325 319 315 313 311 314 318 319 319 318 318 316 316 321 324 323 322 322 321 319 313 311 312 311 311 311 311 311 311 311 312
325 322 321 321 321 323 326 324 327 333 334 330 327 326 323 327 332 332 333 332 331 330 331 331 330 331 332 335 336 339 339 336 335 338 339 337 339 339 339 339 339 338 336 336 336 335 334 333 332 331 330 328 327 327 331 337 339 338 339 339 339 339 338 336 334 329 322 317 316 314 311 316 319 319 319 321 320 318 318 323 324 321 320 321 321 319 314 311 311 311 311 311 311 311 311 311 311
327 323 322 322 323 324 327 328 328 329 331 328 325 326 326 329 331 331 331 330 330 330 330 331 330 330 332 334 335 342 342 337 334 335 336 338 339 339 340 339 338 337 335 336 335 336 334 333 333 331 330 329 328 327 327 333 338 340 339 340 339 339 338 336 335 328 321 318 315 314 314 316 320 319 319 320 319 319 321 322 322 322 322 322 322 321 317 312 310 311 311 311 311 311 311 310 311
329 324 324 324 324 326 330 331 330 328 327 327 325 326 329 330 331 330 328 329 330 330 330 331 332 331 331 334 336 340 340 338 336 333 335 337 338 339 339 338 338 335 335 336 335 336 334 333 333 332 331 329 329 328 327 328 334 339 339 339 339 338 338 336 334 326 320 317 313 315 318 318 319 320 321 319 318 322 324 320 318 320 322 321 320 319 317 313 311 311 310 311 311 311 311 310 311
329 325 326 325 325 328 329 330 334 330 325 329 327 325 330 331 331 329 327 328 329 328 328 330 333 332 331 335 336 338 339 338 336 334 334 336 338 338 338 338 336 334 334 334 334 334 333 331 331 330 330 328 327 326 327 326 330 336 339 339 337 337 336 335 332 323 317 315 313 314 318 320 317 317 320 319 319 323 323 318 317 317 318 319 317 315 315 314 310 311 310 310 311 311 310 310 311
328 327 326 325 326 326 328 329 335 333 325 329 327 325 330 329 329 329 327 328 327 326 328 331 331 332 334 336 336 337 339 337 336 335 334 336 337 336 336 336 335 335 333 332 333 333 331 329 329 329 328 325 323 323 324 325 327 329 334 337 336 336 334 332 326 317 314 314 316 316 315 316 315 313 315 320 322 321 319 317 315 316 317 317 316 316 317 316 312 310 310 310 311 310 310 311 311
328 329 327 328 328 325 329 330 333 334 325 327 327 327 329 326 328 329 329 330 327 325 327 329 327 330 334 335 337 338 338 337 336 335 335 336 336 335 335 335 336 336 333 333 334 333 332 330 329 328 326 324 322 322 322 323 323 322 326 329 332 333 330 327 320 316 315 315 320 320 316 314 315 314 313 318 322 319 317 316 315 315 316 316 317 318 319 317 312 310 310 310 310 310 310 311 310
328 329 326 329 333 330 333 333 335 333 323 324 326 327 328 327 328 328 329 329 328 326 325 326 326 330 333 334 337 337 338 338 336 335 337 337 336 335 334 336 336 335 335 335 335 334 334 331 329 329 326 324 322 321 321 320 320 319 319 320 323 324 323 320 317 317 315 317 324 325 322 317 315 316 314 315 318 318 315 314 315 315 316 316 317 319 319 317 313 310 310 310 310 310 310 310 310
329 330 327 329 335 336 337 336 335 330 323 325 326 326 327 328 327 326 326 324 326 326 325 327 327 329 332 336 337 335 336 337 336 336 337 335 336 335 334 335 334 335 337 336 336 334 333 330 329 329 326 324 322 321 319 318 318 317 316 316 315 316 316 315 316 315 313 320 328 328 326 321 318 319 317 314 314 315 315 314 315 316 318 316 317 318 318 317 315 311 310 310 310 310 310 310 310
330 329 327 332 337 335 337 338 335 329 324 325 325 326 327 327 326 326 324 322 324 326 327 327 324 327 334 336 336 335 335 335 334 334 335 334 334 333 333 335 334 335 336 335 335 335 333 330 328 327 326 324 322 320 319 316 316 315 315 314 313 312 313 314 313 312 314 321 327 328 327 325 322 320 319 315 313 313 314 315 315 317 317 315 316 317 315 314 313 311 310 310 310 310 310 310 310
331 329 328 334 337 335 337 340 336 328 324 324 324 326 326 326 326 324 322 321 326 328 325 323 322 327 335 337 336 334 334 335 333 331 333 333 333 333 335 337 335 335 335 333 332 333 333 329 327 326 325 324 321 320 319 316 314 313 313 313 313 313 313 313 312 314 319 320 324 329 328 326 324 320 319 316 313 313 313 314 314 316 315 314 314 314 313 312 310 310 311 310 310 310 310 310 310
332 333 331 333 337 337 338 339 335 326 324 325 324 325 325 325 326 324 322 322 325 327 322 323 326 327 333 337 336 334 334 336 334 331 333 333 333 335 337 337 336 334 333 332 331 330 329 326 326 325 325 324 322 321 320 318 314 312 312 312 312 313 313 314 314 317 321 320 324 330 329 328 326 323 319 316 313 313 313 313 313 313 312 312 311 311 311 310 310 310 310 310 310 310 310 310 310
330 332 332 334 338 336 336 337 337 332 329 327 325 326 326 325 326 325 322 321 323 326 323 323 325 326 334 337 336 335 336 336 334 331 333 333 334 336 337 337 336 334 332 331 329 327 325 324 323 323 323 322 322 321 321 319 317 313 312 312 311 311 312 314 314 315 317 319 324 328 328 328 327 325 321 318 315 312 313 313 312 311 311 310 309 310 309 309 310 310 310 310 310 310 310 310 310
329 329 330 335 338 336 335 336 339 338 332 329 326 325 326 325 326 323 323 325 325 325 324 322 322 326 335 337 336 337 338 336 334 332 332 333 334 336 337 336 336 334 331 329 327 325 324 323 322 322 322 321 321 321 321 320 319 316 313 311 311 311 312 313 313 314 314 316 320 324 326 326 326 326 324 321 319 316 315 314 313 312 311 310 309 309 309 309 309 310 310 310 310 310 310 310 310
330 329 329 334 338 337 336 336 339 336 330 330 327 325 327 326 325 324 324 328 328 324 322 321 321 326 331 336 338 337 337 336 334 334 332 332 333 335 336 335 334 332 330 327 325 325 324 323 321 321 321 321 320 320 321 321 320 318 314 312 311 310 311 312 311 312 314 314 317 319 321 322 323 324 325 324 322 319 318 316 313 312 311 310 310 309 309 309 309 310 310 310 310 310 310 310 310
330 329 331 334 336 336 337 336 337 335 330 328 327 326 328 326 325 325 325 326 326 323 322 320 321 326 329 333 335 335 336 335 334 334 332 332 332 332 334 334 333 330 328 328 325 324 324 323 322 321 321 320 320 321 321 321 320 319 316 314 311 311 310 311 311 311 313 314 314 315 316 316 317 320 322 323 322 320 318 317 315 313 312 311 310 309 309 310 309 310 310 310 310 310 310 310 310
328 331 334 334 337 336 338 336 331 333 330 326 326 327 328 327 325 325 325 325 324 323 324 323 321 323 327 330 332 334 334 332 332 333 333 332 332 331 333 334 333 331 329 327 325 323 323 323 323 322 322 322 321 321 321 321 321 320 319 316 312 311 309 309 310 310 313 313 312 312 312 312 313 315 317 318 319 318 317 316 315 314 313 311 311 310 310 310 310 310 310 310 310 310 310 310 311
329 336 336 335 339 336 335 331 325 328 328 325 326 326 328 327 325 325 325 324 324 322 323 325 323 322 324 325 326 328 327 328 327 329 332 331 330 330 331 331 331 330 329 328 326 324 324 323 323 323 323 323 322 322 321 321 322 321 321 319 315 312 309 309 310 310 311 312 311 311 311 310 311 312 313 314 315 315 315 315 314 313 312 312 311 310 310 310 310 310 310 310 310 310 310 311 311
331 337 336 337 341 334 329 325 322 324 324 323 324 324 326 327 324 323 324 324 324 325 324 324 325 325 326 324 322 321 321 323 322 324 326 326 327 329 330 331 330 329 328 328 327 327 326 326 325 324 323 323 323 322 322 322 322 322 322 322 320 316 312 310 309 310 311 311 311 311 310 310 310 311 311 312 313 314 313 313 313 313 313 312 311 310 310 310 310 310 310 310 310 310 310 311 312
330 332 336 341 338 330 326 322 321 322 322 321 322 322 324 325 324 323 323 322 323 325 325 324 326 327 326 325 323 320 319 319 320 320 321 321 322 324 326 327 327 327 327 327 327 327 327 327 327 326 326 325 324 324 323 323 322 322 322 323 322 321 318 314 311 310 310 311 310 310 310 309 309 309 310 311 312 313 313 313 313 313 313 312 311 310 310 310 310 310 310 310 310 309 310 310 312
330 331 337 339 333 329 326 321 322 323 323 322 321 322 322 323 325 324 323 323 324 323 324 325 325 326 325 325 324 322 319 319 319 319 319 319 318 318 319 321 323 324 326 327 326 326 326 325 325 325 326 326 326 326 325 325 324 323 322 322 322 322 322 320 316 312 310 310 310 310 309 309 309 309 309 309 311 313 313 313 312 312 312 312 312 310 310 310 310 309 309 309 310 310 310 310 311
330 331 332 332 330 330 326 321 324 324 323 323 321 322 322 323 323 323 323 325 326 323 324 325 324 325 325 325 324 322 321 320 319 319 319 319 319 318 316 316 318 320 321 321 321 321 322 322 323 323 324 325 325 326 326 326 326 325 324 323 323 322 322 322 321 317 313 311 310 310 309 309 309 309 309 309 310 311 312 311 311 310 311 312 312 310 310 310 310 310 309 309 310 310 310 310 311
331 331 328 328 329 329 326 323 324 325 324 322 320 320 320 321 322 322 322 324 325 323 323 323 324 325 325 325 324 323 321 321 320 320 319 319 319 318 317 316 315 316 316 315 315 316 317 317 318 319 320 320 322 324 325 325 325 326 326 325 324 324 323 322 323 322 319 315 311 310 310 310 309 309 309 309 309 309 310 310 310 310 310 311 311 310 310 310 310 310 309 309 309 310 310 310 311
332 332 329 328 329 328 328 324 323 325 325 323 321 321 320 320 322 322 322 322 322 322 322 322 323 324 325 325 325 324 322 320 320 320 320 319 319 318 318 318 316 317 317 315 315 314 314 315 315 315 315 316 317 319 320 321 322 324 326 326 325 325 324 324 323 323 322 320 316 312 310 310 310 310 309 310 309 309 309 309 308 309 310 310 310 310 310 310 310 310 310 309 309 310 310 310 310
331 332 330 329 329 328 328 325 323 325 325 325 324 322 322 322 322 321 321 323 322 322 322 322 322 323 324 326 326 325 321 320 320 320 320 319 319 319 319 319 318 318 317 316 317 316 315 315 315 314 314 314 314 314 316 317 318 321 323 323 324 324 324 325 324 323 323 322 321 318 314 311 310 310 309 309 309 309 309 309 308 308 309 309 309 310 310 310 310 310 310 309 310 310 310 310 310
332 331 331 329 329 328 328 325 323 324 324 325 324 322 323 324 323 322 322 323 323 323 322 322 322 323 324 324 324 323 321 321 321 320 320 319 319 319 318 319 319 318 318 318 317 317 317 317 316 316 315 315 314 314 314 314 316 317 318 319 321 322 323 325 325 325 324 323 322 321 319 315 312 310 309 309 309 309 309 309 308 308 308 308 308 309 309 309 310 310 310 310 310 310 310 310 310
331 331 330 329 328 328 328 327 324 324 325 324 324 323 323 324 324 324 325 325 325 324 323 322 321 322 323 323 322 322 321 321 321 321 320 319 319 318 318 319 318 318 318 318 318 318 318 318 317 317 317 317 317 316 315 314 314 315 316 317 319 321 323 325 326 326 325 324 323 322 321 319 316 313 310 309 309 309 309 309 309 309 308 308 308 308 308 309 309 310 310 310 310 310 310 311 311
330 330 329 329 328 328 328 327 326 324 325 325 324 323 323 324 323 323 325 326 326 325 324 323 321 322 322 322 322 321 321 321 321 321 321 320 319 319 319 319 319 318 319 319 318 318 318 318 318 318 318 318 318 317 317 316 315 315 315 316 317 319 321 324 325 326 326 325 324 322 321 321 320 317 313 310 309 309 309 309 309 309 309 308 308 308 308 308 309 309 310 310 310 310 310 311 311
330 329 329 330 328 328 328 326 325 325 325 324 323 325 325 324 323 323 325 326 327 325 324 323 322 322 322 321 321 321 321 321 322 321 320 320 321 321 322 322 321 320 320 320 319 319 319 318 318 318 318 318 318 318 318 318 318 317 316 316 316 317 319 320 322 324 325 326 325 323 322 321 320 320 318 314 311 309 309 309 309 309 308 308 308 308 307 307 308 309 309 309 310 310 310 311 311
330 328 329 330 330 331 328 325 325 325 325 324 324 327 329 326 323 324 326 326 326 325 324 322 322 321 321 321 321 321 321 321 322 321 321 320 321 322 322 323 323 323 323 322 321 320 319 318 318 318 318 319 319 319 319 319 320 319 318 317 316 316 316 317 318 321 323 325 326 325 323 321 321 320 320 318 315 312 310 309 309 309 308 308 308 308 308 308 307 308 308 309 309 310 310 310 310
330 329 329 331 332 332 328 324 324 325 325 324 325 327 328 327 325 325 326 327 325 324 324 323 323 322 322 321 321 321 321 321 321 321 322 322 323 323 323 324 324 324 324 323 323 323 321 320 318 318 318 319 320 320 320 320 321 321 320 319 318 317 316 316 316 317 319 322 324 325 325 323 321 320 320 320 319 317 314 312 310 309 309 308 308 309 308 308 307 307 307 308 309 309 309 310 310
330 332 333 332 332 331 328 325 324 326 326 323 325 329 329 327 325 325 326 327 326 323 324 324 323 323 323 322 322 323 323 322 322 322 323 324 324 325 325 326 326 326 325 324 324 323 323 321 320 319 319 319 319 320 320 320 320 321 321 321 320 319 318 317 316 315 315 317 320 322 324 324 323 321 320 320 320 320 318 317 314 311 309 308 308 308 308 308 308 307 307 307 308 308 309 309 310
331 331 333 333 332 330 329 329 324 324 326 322 324 330 333 331 326 326 326 326 327 325 323 324 324 324 324 323 323 323 324 324 323 323 324 324 324 325 325 326 327 327 327 326 325 324 324 323 322 321 321 320 320 320 320 320 321 321 322 322 321 320 320 319 318 317 316 315 315 316 319 323 324 323 321 320 320 321 320 320 318 315 311 309 308 308 308 308 308 307 307 307 307 308 308 309 309
331 329 331 332 332 332 332 333 327 324 326 325 324 326 329 332 327 326 327 326 327 325 324 324 324 324 324 324 325 325 325 325 325 324 325 325 324 324 325 325 326 327 327 327 326 326 325 324 323 323 323 322 322 322 322 322 323 323 323 322 322 321 321 321 320 319 318 316 315 314 315 319 323 324 322 320 320 320 321 320 319 317 315 312 309 308 308 308 308 307 307 307 307 307 308 308 308
332 330 331 331 331 332 332 333 329 326 327 326 325 325 325 327 325 324 326 327 326 325 324 325 325 325 326 326 327 327 327 327 327 327 326 326 325 325 325 325 326 326 326 326 327 327 326 325 324 324 324 324 325 325 325 325 325 324 324 323 323 322 322 321 321 320 319 318 317 316 314 315 319 323 324 322 320 320 321 321 320 319 318 315 312 309 308 308 308 308 307 307 307 307 307 307 307
331 331 332 332 330 330 330 331 329 326 327 327 325 325 325 325 325 324 325 326 326 326 326 325 326 326 326 327 327 328 328 328 328 328 327 327 327 327 326 326 326 326 325 325 326 326 327 326 326 325 326 326 326 326 326 326 325 325 324 324 323 322 322 321 321 321 320 319 319 318 317 315 316 320 323 323 321 320 321 321 321 320 319 317 314 311 309 309 309 308 308 308 307 307 307 306 307
331 332 333 333 333 332 330 330 330 325 327 328 326 326 326 326 326 324 324 326 325 326 326 326 327 327 327 327 327 327 327 328 328 328 328 327 327 327 327 326 326 326 326 325 325 326 326 327 326 326 327 326 326 327 327 326 326 326 325 324 324 323 322 322 322 322 322 322 322 321 320 318 316 316 320 323 323 321 320 321 321 322 321 318 316 313 311 309 308 309 308 307 307 307 307 307 306
331 333 333 333 334 334 331 331 331 326 327 330 328 328 328 328 328 326 324 326 326 325 325 326 326 327 327 327 327 327 327 327 327 327 327 327 327 327 327 327 326 326 326 326 326 326 326 326 326 326 326 326 327 326 326 327 326 326 326 325 324 323 323 323 323 324 323 324 324 323 322 321 319 316 317 320 323 322 321 321 321 322 321 320 318 315 314 311 309 309 308 308 307 307 307 307 307
330 331 330 331 332 332 333 332 331 327 327 331 331 329 329 328 329 327 324 325 326 326 326 326 327 327 327 327 327 327 327 327 327 327 327 327 327 327 327 327 327 327 327 327 327 327 327 327 326 326 326 326 326 326 326 326 326 326 326 325 324 323 322 322 324 324 324 324 324 324 324 322 321 319 316 317 321 323 322 321 321 322 322 321 319 317 315 313 311 310 309 308 308 307 307 307 307
329 330 330 330 329 331 335 335 332 328 326 327 328 328 328 327 328 326 323 323 325 325 326 326 327 327 327 327 327 327 327 327 327 327 327 327 327 327 327 327 327 327 326 327 327 327 327 327 326 326 326 325 325 325 325 326 326 326 326 326 325 323 323 323 324 324 324 324 324 324 324 324 322 321 318 316 317 321 323 322 321 321 322 322 321 319 317 315 313 311 310 309 308 308 308 308 308
328 329 330 329 328 330 335 335 332 330 328 326 326 328 327 327 327 326 324 323 323 323 324 324 325 326 327 327 327 327 327 327 327 327 327 327 327 327 327 327 327 327 327 327 326 327 326 326 326 326 325 325 324 324 324 325 326 327 326 326 326 325 324 324 325 325 324 324 324 325 325 324 323 322 320 318 316 316 320 322 322 321 321 322 322 321 320 318 315 313 312 311 310 308 308 308 309
329 329 329 328 329 331 331 331 330 331 331 329 326 328 331 329 328 327 325 324 323 322 321 322 324 324 325 325 325 326 326 326 326 326 326 326 326 326 326 326 326 327 327 327 327 327 327 327 326 326 325 325 324 324 324 325 326 327 327 326 326 325 325 325 325 325 324 324 325 325 325 325 324 323 322 320 318 316 316 319 322 323 322 322 322 322 323 321 318 316 313 312 311 310 309 309 308
331 329 328 327 328 329 329 329 331 331 332 329 325 327 331 330 328 327 326 324 324 323 320 320 322 323 323 323 324 324 324 324 325 324 325 325 325 325 325 325 325 326 326 326 327 327 326 325 325 325 325 324 324 323 324 325 326 326 327 326 326 325 325 324 324 325 324 325 325 325 326 325 325 324 323 322 320 318 317 316 318 321 322 323 322 322 323 323 322 320 316 313 312 311 311 309 309
330 326 325 327 327 328 329 330 331 331 330 329 325 325 328 329 329 327 325 325 324 323 321 320 320 321 322 322 322 323 324 324 324 324 325 325 325 324 324 324 325 325 325 325 325 324 323 321 321 322 323 323 322 322 323 323 324 325 325 326 326 325 325 325 325 325 325 325 325 325 325 325 325 324 323 322 321 320 319 317 316 318 320 322 323 323 323 323 324 323 320 316 314 313 312 311 310
326 322 323 325 325 327 329 328 329 329 327 328 327 324 327 329 329 326 323 324 324 323 323 321 319 320 320 320 321 323 324 324 324 325 325 324 324 323 324 325 325 324 323 323 322 321 320 319 319 320 321 321 321 321 322 322 323 323 324 325 325 325 325 325 325 326 326 325 325 325 325 325 325 324 323 321 321 320 320 319 318 316 317 318 321 322 323 323 324 324 323 320 318 315 313 312 311
323 322 323 323 322 324 327 328 328 328 328 329 328 326 328 329 328 325 323 323 324 324 323 320 318 320 321 321 321 323 325 325 324 325 324 324 324 324 325 325 324 322 321 321 320 320 319 319 319 319 320 320 320 320 320 321 322 323 323 324 324 325 326 326 326 326 326 326 326 326 325 325 325 324 323 322 321 320 320 320 319 318 317 316 318 319 321 322 323 324 324 323 322 319 316 313 312
321 322 323 322 322 323 326 328 328 329 329 328 327 326 327 328 328 326 325 326 325 323 323 321 319 320 322 321 322 323 325 324 324 324 323 324 324 324 323 322 321 321 320 320 319 318 318 318 319 319 319 319 320 320 320 320 321 322 323 324 324 324 325 326 326 326 326 326 326 325 325 325 325 324 324 323 322 321 321 321 320 320 319 318 317 317 318 319 321 323 324 324 323 322 320 317 314
321 322 321 321 323 324 324 326 327 329 330 329 327 326 326 327 328 327 328 328 325 323 324 324 321 320 322 322 322 323 324 324 323 324 324 324 323 320 319 319 319 319 318 317 316 316 316 316 317 317 317 317 318 318 318 318 319 320 321 323 324 324 324 325 325 325 325 325 325 325 325 326 325 325 325 324 323 322 321 321 321 321 320 319 319 318 317 317 319 322 323 323 323 323 323 321 319
322 321 319 320 324 325 325 326 326 327 329 328 326 326 326 326 325 324 326 325 323 322 322 323 320 320 322 322 322 322 323 322 322 323 323 322 320 319 318 318 318 317 316 316 316 316 316 315 316 316 316 315 315 316 316 316 317 318 319 320 322 322 323 324 324 324 324 324 324 324 325 325 325 325 325 324 323 323 322 321 321 320 320 319 319 319 319 319 320 321 322 322 322 323 323 323 322
321 320 319 320 323 324 325 327 326 326 328 327 326 326 327 327 325 324 323 322 322 321 320 321 320 321 322 322 321 322 322 322 322 322 322 321 319 318 318 318 317 317 317 317 316 317 317 316 316 316 316 315 315 315 315 315 315 315 316 317 319 321 322 322 322 323 323 323 324 324 324 324 324 324 323 323 323 323 324 323 322 322 321 321 321 321 321 321 321 321 322 322 322 322 323 323 323
321 320 320 320 323 324 324 326 327 327 329 328 326 327 329 331 330 325 322 320 320 319 320 320 320 322 323 321 321 322 322 322 323 322 322 320 319 318 318 317 318 318 318 317 315 315 317 317 317 317 317 317 317 316 315 315 315 315 315 316 317 319 320 321 321 321 322 322 323 323 323 324 323 323 322 322 323 324 324 324 324 324 324 323 323 323 322 322 322 322 322 323 322 322 322 323 323
320 321 320 320 323 325 324 324 326 327 328 328 326 329 331 331 328 322 319 319 318 317 318 319 321 321 321 321 322 322 323 322 322 322 321 320 318 318 317 316 316 316 317 318 315 312 314 317 318 317 318 318 318 318 317 317 316 315 315 315 316 317 318 319 319 319 320 321 322 323 323 323 323 323 322 322 323 323 324 324 324 324 324 325 325 325 324 324 324 323 323 323 323 323 323 323 323
320 320 321 320 323 326 324 322 323 324 325 326 327 328 327 325 323 321 319 319 318 318 319 319 320 321 321 322 322 322 323 322 322 322 320 319 318 317 317 315 314 314 315 318 317 313 311 313 316 317 317 316 316 317 317 317 317 317 317 315 315 315 316 317 317 317 318 320 322 322 322 322 322 322 322 322 322 323 323 323 323 323 324 325 325 326 326 325 325 325 324 324 324 323 323 323 323
321 320 320 320 322 324 324 323 323 323 323 324 325 324 322 322 324 324 323 320 319 324 325 320 319 320 321 322 322 322 322 322 321 320 319 318 318 317 317 316 315 314 312 315 317 316 314 313 313 314 315 315 314 315 315 315 315 317 318 318 317 316 315 315 315 316 317 318 320 321 321 322 322 321 321 321 321 321 322 323 323 323 324 324 325 326 326 326 326 326 326 325 325 325 324 324 324
319 320 319 321 323 322 322 322 323 323 322 323 325 324 322 322 321 321 322 323 324 327 327 324 320 320 321 322 322 321 321 322 321 319 318 318 318 318 318 316 315 312 310 311 315 317 317 316 314 313 314 314 315 315 314 313 313 313 315 317 318 318 317 315 314 314 315 316 317 317 319 320 321 321 321 321 320 320 321 322 322 323 324 325 325 326 326 327 327 327 326 326 326 325 325 325 324
319 319 319 321 324 323 322 321 322 323 322 322 324 325 325 323 318 317 319 321 324 323 323 324 321 318 320 322 321 320 321 321 320 318 318 317 317 318 317 315 314 313 309 308 311 315 317 318 317 316 314 313 314 315 314 313 313 312 311 313 316 318 318 317 316 314 314 315 315 316 317 318 319 320 321 320 320 320 321 321 322 323 324 325 326 326 327 327 327 327 327 327 326 326 326 325 325
320 320 320 320 322 323 323 321 323 324 322 322 322 322 327 326 319 318 318 318 320 321 321 321 318 317 319 320 320 321 321 321 318 317 318 317 317 317 317 316 316 315 311 308 309 312 315 317 318 317 315 313 313 313 313 312 312 312 311 310 312 315 317 318 318 316 315 315 315 316 317 317 318 319 319 320 320 320 321 322 322 323 324 324 325 326 326 327 327 327 327 327 327 326 326 326 326
319 320 319 319 320 321 323 322 323 324 323 325 323 320 325 327 320 317 319 318 318 318 319 318 316 316 318 318 318 319 320 319 318 318 317 318 317 317 317 317 316 315 312 309 308 309 312 315 317 317 315 313 312 311 311 311 310 311 311 311 310 311 314 317 318 318 316 314 314 315 316 316 316 317 317 318 319 320 321 322 322 323 323 323 324 324 325 326 327 327 327 327 327 327 327 326 326
Wind_Speed
13 13 13 13 15 14 9 9 3 1 2 1 2 1 2 2 4 4 5 6 4 5 10 9 8 10 7 9 12 12 11 4 1 2 4 11 17 14 12 11 10 8 7 11 11 9 9 8 7 7 8 9 10 9 9 9 9 8 7 7 5 3 1 1 3 5 6 9 10 9 7 6 6 7 8 7 7 7 10 11 11 11 11 11 11 13 14 14 14 14 14 14 14 14 14 13 14
14 13 13 12 12 10 8 7 2 2 4 2 3 2 2 5 6 5 6 5 4 4 8 8 7 10 9 13 10 9 11 9 5 10 15 18 19 12 12 12 12 10 8 11 12 10 9 8 7 7 7 8 9 9 9 9 8 8 7 6 5 3 1 1 3 5 6 9 9 7 6 6 6 6 8 8 8 10 11 11 10 11 10 11 11 12 14 14 14 14 14 13 14 13 13 12 13
14 14 13 12 10 8 7 4 2 1 4 3 3 1 4 6 5 4 7 8 8 7 7 7 6 8 9 9 6 5 5 6 7 16 21 19 17 15 13 12 11 9 10 12 12 10 9 8 7 7 7 7 7 8 9 9 8 8 7 6 6 3 1 2 4 5 6 9 8 6 5 5 5 6 7 8 9 10 11 10 10 10 10 11 12 12 13 14 14 14 13 13 13 12 12 11 11
14 14 13 14 11 7 3 2 1 3 2 2 1 1 4 7 6 5 9 10 9 7 6 5 4 5 9 8 7 8 7 4 6 10 19 18 16 17 14 12 12 10 10 11 12 10 9 8 6 6 7 6 6 6 8 10 9 8 7 7 6 4 3 3 5 6 5 7 7 4 5 5 5 6 7 8 9 9 9 9 9 10 10 11 11 11 12 13 13 13 13 12 12 11 11 10 10
13 11 10 11 7 4 2 2 1 3 1 2 3 3 6 7 7 6 9 10 8 7 7 5 3 4 8 8 6 7 7 7 7 6 14 19 16 17 14 13 12 10 10 11 11 11 9 8 7 6 6 5 5 6 8 10 10 9 9 8 6 5 5 5 5 6 5 6 4 3 4 4 4 5 6 8 9 8 9 9 9 9 9 11 11 10 10 12 12 12 12 11 11 10 10 9 9
12 9 8 8 4 3 1 2 3 1 3 4 5 4 7 7 9 10 11 10 7 7 8 6 4 5 8 9 10 8 5 4 7 7 10 17 17 14 14 14 11 9 8 9 10 10 9 8 7 6 5 4 5 6 7 9 11 11 11 10 8 6 6 7 7 7 5 4 2 2 3 4 4 4 5 7 8 8 8 8 8 8 8 10 10 10 10 10 11 11 11 10 10 9 9 9 8
13 10 8 7 4 3 1 1 3 2 3 3 6 6 7 10 14 14 9 7 5 6 7 5 5 7 6 7 10 8 5 4 4 6 6 13 15 13 13 14 10 8 7 6 6 7 7 7 7 6 6 4 4 6 7 8 9 10 12 12 11 10 9 9 9 7 4 2 2 1 2 4 4 4 4 5 7 8 8 7 8 8 8 9 9 9 9 9 10 10 10 10 9 9 8 8 8
10 10 8 5 2 2 1 2 3 3 1 1 6 8 11 15 17 12 6 5 4 4 5 4 3 4 3 5 7 6 6 5 2 4 6 9 13 13 14 13 11 10 7 6 5 5 6 6 6 6 5 4 4 5 6 7 7 7 9 11 12 12 12 10 9 6 3 2 3 1 1 3 4 3 3 4 5 6 8 7 7 7 7 8 8 9 8 9 9 9 9 9 9 8 8 7 7
8 7 5 2 1 3 3 3 2 3 2 1 4 10 16 18 16 11 6 6 7 6 6 5 3 2 4 9 10 6 5 5 4 5 6 6 11 15 15 13 13 12 9 8 7 6 6 6 6 6 5 4 4 5 6 6 6 6 7 7 9 9 9 8 8 6 2 4 5 4 2 3 4 3 2 3 5 5 7 7 7 7 6 7 8 8 8 8 8 8 8 8 8 7 7 6 6
9 5 3 0 1 3 4 4 2 1 3 3 5 11 15 14 13 12 8 7 9 9 6 4 2 5 9 9 9 8 5 5 6 6 6 6 12 16 14 13 12 13 12 10 8 7 6 6 7 7 6 5 5 5 6 6 6 7 6 6 6 6 6 6 6 4 4 7 8 6 5 4 4 3 3 4 4 5 5 6 7 6 6 7 7 7 7 7 7 7 7 7 7 6 6 6 5
8 5 4 2 2 2 2 3 3 1 4 3 6 11 12 10 10 11 11 8 9 9 5 3 1 8 12 7 7 8 8 7 4 5 6 8 13 15 14 12 11 11 12 10 9 8 8 8 8 7 7 5 5 6 6 6 7 7 7 7 7 6 6 5 5 4 6 9 9 8 6 5 5 5 5 5 5 5 5 5 5 5 6 6 5 6 6 7 7 6 6 6 5 5 5 5 4
4 5 5 1 1 2 3 3 2 2 2 2 4 9 12 10 9 8 10 8 9 9 5 4 1 5 9 5 7 9 12 11 6 4 5 10 15 15 14 14 12 11 11 10 10 10 10 9 8 8 7 6 5 5 6 6 6 7 7 8 7 7 6 5 5 5 8 10 10 9 8 7 6 6 6 6 6 6 5 5 6 5 4 4 5 5 5 5 6 5 5 4 4 4 4 3 3
3 3 4 1 2 1 3 3 2 1 2 1 2 9 12 10 8 8 11 9 8 8 5 5 1 3 6 5 9 11 14 14 9 5 6 12 16 15 14 15 13 13 11 12 12 11 11 10 9 9 7 7 6 6 5 5 5 6 6 7 7 6 6 6 6 6 9 11 11 11 10 8 7 7 6 5 6 7 7 7 6 5 4 4 4 4 4 4 5 4 4 3 3 3 2 2 2
5 5 3 2 2 3 3 3 1 4 2 4 2 10 11 7 7 11 14 7 4 9 7 4 3 5 6 7 9 13 15 14 11 7 7 12 17 16 17 18 16 15 13 13 13 12 12 11 10 10 9 9 8 7 6 5 5 5 6 7 7 6 7 7 7 7 9 12 13 12 11 10 9 8 7 6 7 8 8 7 7 6 5 4 4 4 4 4 4 4 4 3 2 1 1 1 1
7 5 2 1 3 4 2 3 1 5 1 3 6 11 9 8 9 11 13 7 5 10 8 4 4 3 5 6 8 16 17 14 12 10 9 12 16 17 18 19 18 17 14 13 13 13 13 12 11 10 10 9 9 8 7 7 6 6 6 6 7 7 8 8 8 7 9 12 13 13 13 12 11 10 9 8 8 8 8 7 7 6 6 5 5 4 4 4 4 4 3 2 1 0 1 1 1
5 3 3 2 3 3 2 3 1 3 3 5 10 11 7 7 9 10 9 8 9 9 4 3 4 2 4 7 8 14 15 13 13 12 11 12 15 17 18 19 18 17 14 14 14 14 13 13 12 11 11 10 10 9 8 8 8 7 7 7 7 8 8 9 8 8 9 12 13 14 14 13 13 12 11 10 10 9 8 8 8 8 7 7 6 6 5 5 4 4 3 2 1 1 1 2 2
2 1 2 1 2 2 3 3 3 1 2 2 8 10 7 4 6 10 9 8 9 8 4 5 4 2 3 6 8 13 14 13 13 12 11 12 13 15 18 19 18 16 15 15 14 14 14 13 13 12 12 12 11 11 10 10 9 9 8 8 8 8 9 9 9 9 10 12 13 14 14 15 15 14 13 13 12 11 10 10 10 10 9 9 8 8 7 6 5 5 5 3 2 2 2 3 3
2 2 2 2 2 3 3 1 2 2 1 2 4 7 6 5 5 9 8 7 9 7 6 5 4 3 3 5 9 11 12 12 11 11 12 12 12 14 16 18 17 15 14 14 14 14 14 15 14 13 13 12 12 12 12 12 11 10 10 9 9 9 10 10 11 10 11 13 14 14 15 15 15 16 15 14 14 13 13 12 12 11 11 11 10 10 9 8 7 7 6 5 3 3 2 3 4
5 2 2 3 4 6 4 1 2 4 2 1 3 5 6 7 7 8 5 4 9 7 6 7 6 6 6 7 10 10 11 10 9 9 10 10 10 11 13 15 15 14 13 12 12 13 14 14 14 15 15 15 14 14 13 13 13 12 10 10 9 10 10 11 12 12 13 13 14 15 15 15 16 16 16 16 15 15 14 14 13 13 13 12 12 11 11 10 9 8 7 6 5 4 4 4 4
7 5 2 4 6 6 4 5 6 7 6 6 6 5 6 6 6 7 3 4 7 7 8 9 9 12 12 11 11 10 10 10 9 8 8 8 8 8 10 11 13 11 11 10 11 12 13 14 14 14 15 16 16 16 15 15 14 13 12 11 10 10 10 12 13 14 14 15 15 15 16 16 16 17 17 16 16 16 15 15 14 14 14 14 13 13 12 12 11 10 9 8 7 6 5 5 5
5 6 4 5 8 5 3 6 8 7 8 8 5 6 6 5 6 4 3 2 2 6 10 12 13 15 16 15 14 11 11 11 10 10 8 8 8 8 8 8 8 8 9 11 12 13 13 14 14 15 15 15 16 16 16 15 16 15 14 13 13 12 12 12 13 14 15 16 16 16 17 17 17 17 17 17 17 16 16 15 14 14 14 15 14 14 13 13 12 11 10 9 8 7 7 7 7
4 6 7 8 10 4 1 1 3 4 6 6 5 5 3 3 4 2 2 1 2 4 6 8 12 16 17 15 14 13 12 12 11 11 10 9 8 9 8 8 8 8 9 11 11 12 12 13 14 15 16 16 16 17 17 17 17 17 17 16 15 15 14 14 14 14 15 16 17 17 18 18 19 19 18 18 16 16 16 14 14 14 14 15 15 15 14 15 14 13 12 11 9 8 9 9 9
5 6 8 11 13 8 5 3 3 1 3 5 4 3 1 1 2 3 4 6 5 3 2 1 4 10 17 16 14 13 10 11 11 10 10 9 8 9 9 9 9 9 9 9 9 10 11 12 13 14 15 15 16 17 18 18 18 18 18 18 18 18 17 16 16 15 15 16 17 17 18 19 20 19 19 18 16 15 16 15 15 15 15 15 16 16 16 16 15 15 14 13 11 10 10 11 10
8 5 7 12 15 12 9 4 6 5 4 3 1 1 2 1 2 3 6 10 10 8 6 5 4 4 15 18 15 12 8 8 8 8 8 8 8 8 9 10 10 10 10 9 8 9 10 11 12 13 13 14 15 16 17 18 18 19 20 20 20 19 19 19 18 17 16 16 17 17 19 19 20 20 19 18 17 17 17 16 16 16 16 15 16 17 17 17 17 17 16 14 13 12 12 12 11
8 6 8 12 15 13 8 4 6 5 5 3 3 4 7 6 6 6 9 11 9 10 9 9 7 4 13 17 14 11 9 8 7 8 9 9 9 10 10 11 12 13 11 10 10 10 10 11 12 13 13 13 14 14 16 16 17 19 20 21 20 20 19 19 20 20 19 18 17 17 18 19 20 20 19 19 19 19 19 18 18 18 17 16 16 18 18 17 18 18 17 16 15 14 14 13 12
9 12 14 12 13 16 11 7 9 7 6 6 5 6 10 11 8 8 12 14 12 11 10 10 9 9 12 14 14 12 11 11 10 10 9 9 11 13 14 13 15 15 13 12 13 12 11 12 13 13 13 13 14 14 15 15 16 18 19 20 20 20 20 19 20 21 21 20 19 18 18 19 20 21 20 20 20 21 20 20 20 19 18 18 18 18 17 17 18 18 18 18 16 16 15 14 13
10 17 17 12 12 16 15 12 11 9 7 8 7 6 11 12 7 5 8 10 12 15 16 16 14 13 14 14 15 15 14 15 13 11 10 11 13 14 15 15 16 17 16 16 15 14 14 15 14 14 14 14 15 16 16 15 16 17 17 18 20 20 21 21 21 22 22 23 22 21 20 20 20 21 22 21 22 22 22 21 20 20 20 20 19 19 18 18 18 18 19 18 17 17 16 15 15
14 15 13 12 13 13 14 13 11 9 5 10 10 6 9 10 6 8 11 11 12 15 18 21 20 17 16 15 15 16 17 16 14 13 13 14 14 13 14 15 16 16 17 17 16 16 17 17 16 16 16 16 17 17 17 17 16 16 16 18 19 20 21 22 23 23 23 23 23 23 22 22 22 22 22 23 24 24 24 22 21 21 21 21 21 20 20 20 19 19 19 19 18 18 17 16 17
16 12 7 8 9 8 11 11 11 9 3 8 8 4 6 7 8 14 19 20 19 17 17 20 23 21 19 17 16 17 17 16 15 16 16 16 15 14 15 15 15 16 17 17 17 19 19 19 18 17 17 18 18 18 18 18 17 17 17 17 18 20 21 22 23 24 24 24 24 25 25 24 24 24 24 23 25 25 25 24 23 22 21 21 21 21 22 22 21 21 20 20 20 19 19 19 19
12 8 3 4 5 5 8 9 11 9 5 9 7 3 6 7 14 21 22 25 25 21 18 18 21 22 19 17 17 18 18 19 19 19 18 17 17 18 19 18 18 19 19 19 21 22 21 20 20 19 19 19 19 19 19 19 18 18 18 19 19 20 21 22 23 24 25 26 26 27 27 27 26 25 25 24 25 26 26 26 25 23 22 21 22 23 23 24 23 23 21 21 21 21 21 20 20
5 3 3 2 3 3 6 10 11 7 7 13 10 5 8 5 13 20 20 23 23 23 22 20 20 20 19 19 20 19 19 20 22 22 21 20 20 20 21 22 22 23 23 23 24 23 23 22 21 21 21 21 20 21 21 20 19 19 20 21 21 21 22 23 23 24 25 26 27 28 28 28 28 27 26 25 26 26 27 27 26 25 23 22 23 24 24 25 25 24 23 22 22 22 23 22 21
2 3 4 3 4 2 2 8 12 8 8 15 13 5 7 6 15 21 20 22 22 22 25 24 23 22 21 21 21 20 19 20 22 23 22 22 21 21 21 21 21 23 24 25 25 25 25 24 23 22 22 22 22 23 23 23 22 22 23 23 23 23 24 24 23 23 24 25 27 28 29 28 28 28 28 27 27 27 28 28 27 26 25 25 24 25 26 26 26 26 25 24 23 24 24 23 22
2 4 3 2 4 3 3 6 12 14 7 9 12 6 4 5 12 13 12 17 20 22 24 25 26 24 23 23 23 22 21 22 23 24 24 24 24 23 22 21 20 21 22 23 24 25 26 26 25 24 23 23 23 25 25 26 26 26 26 25 26 26 26 26 25 24 25 25 26 27 28 29 29 28 28 28 28 28 28 28 28 27 27 26 26 26 27 27 26 27 26 25 25 25 25 24 24
3 2 3 3 2 2 3 5 9 15 9 6 11 9 6 6 9 10 9 9 12 21 24 24 25 25 24 24 23 23 22 22 22 23 23 24 25 24 23 22 22 22 22 22 22 24 25 26 26 25 25 24 24 26 26 27 27 27 28 28 28 28 29 28 27 27 27 26 26 26 27 29 30 29 29 29 29 29 29 29 29 28 28 28 28 28 28 28 27 28 27 27 26 26 26 26 25
4 4 3 2 3 4 6 4 5 11 10 9 11 10 10 9 11 18 19 13 8 15 19 21 23 22 22 20 20 20 19 19 18 18 19 22 24 24 24 23 24 24 24 23 22 23 24 25 26 26 26 25 26 26 27 28 28 29 30 30 31 31 31 31 30 30 29 28 28 27 28 28 29 30 30 30 30 30 30 30 30 29 29 29 30 30 30 29 29 29 29 28 27 27 27 26 25
6 7 4 4 6 7 6 5 6 10 10 9 11 11 10 11 12 15 21 21 16 16 16 18 21 21 22 21 21 21 22 23 22 21 21 23 25 26 26 25 25 25 25 25 24 24 24 24 26 27 27 27 28 28 29 30 30 31 32 33 34 34 33 33 32 32 31 30 29 30 30 29 28 30 31 31 31 32 31 31 31 30 30 31 31 32 32 31 31 30 29 28 28 28 28 27 26
6 5 6 7 7 6 4 4 5 7 8 8 10 11 9 10 11 12 19 21 18 18 18 20 22 22 23 23 24 24 24 26 25 25 26 26 28 29 29 28 26 26 26 27 27 27 26 25 27 28 28 29 30 31 32 32 33 33 34 35 35 35 35 34 33 33 32 30 30 32 33 32 30 29 30 32 33 33 33 32 32 32 32 32 32 32 33 32 32 31 29 29 29 29 29 28 26
6 4 5 5 5 5 4 4 4 2 5 6 7 11 11 9 9 12 16 13 12 17 19 20 23 25 26 25 26 27 27 27 27 27 28 28 30 30 29 29 27 27 28 28 29 29 29 28 29 29 29 31 32 33 33 34 34 34 34 35 34 34 34 34 33 32 31 30 31 34 34 34 32 31 31 32 33 34 34 35 34 34 33 32 32 32 33 34 33 32 31 31 30 30 30 28 26
7 5 3 2 3 2 4 4 3 2 4 4 3 6 9 9 9 11 12 10 12 18 18 19 22 24 25 25 25 27 27 27 27 28 28 29 29 29 28 28 28 28 28 29 30 30 30 30 31 31 31 31 33 34 35 35 34 34 34 34 34 34 35 35 34 32 32 32 33 34 35 35 34 33 32 32 34 35 35 36 36 35 34 33 33 33 34 35 36 35 34 33 32 31 31 29 28
8 6 5 4 3 0 3 4 4 3 3 4 4 5 6 5 6 8 11 13 13 16 18 20 22 22 24 26 26 26 27 28 27 28 28 28 29 28 28 28 29 29 29 29 30 30 30 31 31 31 31 31 32 33 34 35 34 34 34 34 34 35 36 36 36 35 35 36 37 36 36 36 36 35 33 33 33 34 36 37 37 37 36 34 34 34 35 36 37 37 36 35 34 33 33 32 31
9 9 9 8 6 4 3 1 3 4 5 5 5 6 6 5 6 7 11 12 12 16 20 20 23 25 26 28 29 29 30 30 29 29 30 29 29 29 28 29 30 29 30 29 29 29 29 29 29 30 31 31 31 32 33 34 35 36 36 35 35 36 38 39 39 40 40 40 39 37 36 37 37 36 35 34 33 34 35 37 37 38 38 36 35 36 36 36 37 38 38 37 37 36 35 33 32
8 10 12 10 7 6 3 3 3 3 3 3 2 4 5 4 7 8 8 7 8 12 15 18 25 28 28 29 31 33 33 33 33 33 34 32 30 30 30 31 31 31 31 29 28 27 27 28 28 29 30 31 31 32 32 33 35 36 37 37 38 38 40 41 42 41 41 40 39 37 36 36 37 37 36 35 35 34 35 36 38 39 39 38 38 37 37 37 38 38 38 39 39 38 36 35 35
6 5 8 11 8 6 5 4 4 1 4 3 3 5 5 3 4 7 6 5 7 7 8 15 23 27 29 31 33 35 36 35 34 35 34 32 30 29 29 28 29 30 30 28 26 25 25 26 27 28 29 30 30 30 31 32 34 36 37 39 39 40 41 43 42 42 41 40 39 38 37 37 37 37 37 36 36 35 35 36 37 38 39 39 39 39 39 39 39 38 38 39 39 38 37 38 38
3 3 1 9 9 8 8 6 4 3 2 3 3 4 4 4 4 6 6 6 9 8 7 12 20 25 27 28 29 32 33 32 31 31 30 27 26 25 23 21 20 22 22 22 22 22 22 22 23 24 25 26 26 27 29 30 32 33 35 38 39 41 42 42 42 42 42 41 40 39 38 37 37 37 37 37 36 36 35 35 36 37 39 39 40 41 41 40 39 39 39 39 40 40 40 40 39
1 2 5 3 3 4 6 7 4 2 1 3 5 3 4 5 4 6 7 7 9 11 9 11 18 24 24 25 26 27 28 28 27 27 25 24 22 20 19 16 13 13 14 16 17 18 19 19 20 22 23 23 23 23 25 28 30 31 33 36 39 40 41 41 41 42 42 42 42 41 39 39 38 38 38 37 36 36 36 35 35 36 37 38 39 41 41 41 41 40 40 40 40 41 41 41 41
5 5 6 5 4 4 3 4 5 3 1 7 6 4 4 4 3 4 4 5 8 9 9 9 15 22 23 25 27 24 24 25 24 24 23 20 15 12 11 10 10 11 12 13 15 16 16 16 18 20 21 22 22 23 24 27 29 31 33 35 38 39 40 40 41 42 42 43 44 42 41 40 40 40 39 39 38 37 37 36 36 36 36 37 38 39 40 41 41 42 42 42 41 41 42 42 42
9 5 5 4 3 4 3 1 3 4 5 9 8 8 5 3 3 5 4 5 8 8 7 7 12 19 22 24 26 25 24 22 21 19 17 12 7 5 6 7 9 10 10 11 12 12 13 14 16 18 19 20 22 23 24 26 28 31 33 35 36 37 38 39 41 41 42 43 44 43 42 42 41 41 41 41 40 39 38 38 38 37 37 37 38 39 40 40 41 42 42 42 42 43 42 43 43
8 4 4 3 4 2 3 2 1 3 6 5 8 9 7 5 5 4 4 5 5 6 6 6 9 16 21 25 26 23 18 13 12 10 9 6 2 3 5 5 5 6 6 7 7 8 9 10 12 15 16 17 19 21 23 25 27 30 32 34 35 35 36 37 39 40 40 41 42 42 43 43 43 43 42 42 42 40 40 39 39 39 38 39 39 39 40 40 42 43 43 44 43 43 43 43 44
5 4 4 2 1 1 1 1 1 2 5 3 6 8 5 7 9 8 9 8 6 8 9 10 14 18 22 22 18 12 8 6 6 5 5 2 2 3 4 5 5 6 6 6 6 7 7 6 7 8 10 11 14 16 20 23 25 27 29 31 33 34 34 35 36 37 38 39 40 41 42 43 43 43 43 43 42 41 40 39 39 40 40 40 40 40 41 41 42 43 44 45 44 44 44 44 45
9 8 7 6 4 3 2 3 0 0 3 4 3 5 3 5 7 9 11 9 12 15 16 19 21 24 27 20 9 6 5 7 5 4 3 1 3 3 5 8 8 8 10 12 12 12 12 11 10 9 8 7 9 11 14 18 20 23 25 27 30 31 32 32 33 34 35 36 39 40 41 42 43 43 43 42 41 40 41 40 40 41 41 41 41 42 42 42 43 44 45 46 45 45 45 45 46
10 6 6 6 5 4 3 3 2 2 1 4 2 3 4 4 4 6 9 9 14 16 18 23 22 23 30 21 8 7 12 12 9 6 3 2 4 5 9 12 11 11 12 14 15 15 14 14 14 15 14 13 11 10 10 12 14 17 20 22 25 27 30 31 32 32 32 34 36 38 40 41 42 42 41 40 40 40 41 41 41 42 41 42 42 42 42 42 43 44 45 46 46 45 46 47 47
5 4 5 5 4 4 2 1 3 3 1 2 2 2 4 4 4 6 7 8 13 18 20 21 21 19 23 19 15 17 18 16 12 6 1 4 6 8 10 12 14 13 12 13 15 16 15 13 13 14 14 15 15 14 14 13 12 13 15 18 21 23 26 28 30 30 31 32 34 35 37 39 40 41 41 40 39 40 40 40 41 41 41 42 42 42 42 42 43 44 45 46 46 46 46 48 48
4 4 6 3 2 5 3 0 2 3 2 3 4 4 4 2 7 9 8 9 12 16 14 11 12 13 13 16 19 19 15 11 7 4 5 6 7 9 10 12 15 17 15 13 13 15 16 15 14 13 13 14 14 14 15 16 15 15 14 15 17 20 23 26 27 29 30 32 33 34 35 36 38 39 39 38 37 38 39 40 40 41 41 42 42 42 42 42 42 44 45 46 46 45 46 48 48
6 5 7 3 3 3 3 2 2 3 4 4 5 9 5 2 5 5 3 8 11 10 9 9 11 10 10 14 15 13 9 6 7 8 8 7 8 8 10 12 16 20 19 16 13 13 15 17 17 16 14 14 14 15 15 16 17 17 16 16 16 16 19 22 25 27 29 31 33 33 34 35 35 35 36 36 36 38 39 40 41 41 41 42 42 42 42 42 42 44 45 46 46 45 47 49 49
4 7 10 6 1 3 4 4 3 4 5 3 4 8 5 5 8 7 4 8 10 8 7 7 9 11 14 17 16 11 8 10 11 11 9 8 7 7 8 10 16 21 21 18 16 14 15 16 18 19 18 17 17 17 17 17 18 18 18 18 18 18 18 18 20 23 26 29 31 31 31 32 32 32 34 35 36 38 39 39 40 41 41 42 42 42 42 42 43 44 45 46 46 46 47 49 50
3 7 8 4 2 4 6 5 3 4 5 4 2 4 4 6 10 11 11 10 9 7 6 6 9 15 22 24 19 12 12 15 14 12 10 7 5 5 5 7 15 22 21 17 17 17 16 17 19 20 21 21 20 20 20 21 21 21 20 19 19 19 19 19 19 20 23 26 27 28 29 29 30 31 32 33 35 37 38 39 40 41 42 42 43 43 43 43 43 44 45 46 46 46 48 49 50
5 7 8 6 3 1 1 3 2 2 3 3 2 3 5 6 7 10 12 12 11 9 8 8 7 9 13 16 14 15 19 19 15 12 9 6 4 2 4 8 14 22 24 18 15 17 18 18 19 21 22 24 25 23 23 24 24 24 24 23 21 20 20 20 20 20 21 22 24 25 27 28 29 30 31 32 34 35 37 38 39 40 41 42 43 43 43 44 44 45 45 46 46 47 48 49 49
10 9 10 10 7 4 3 3 2 2 2 3 3 5 7 5 5 8 10 10 8 7 7 6 4 9 10 9 11 16 19 18 15 11 9 5 1 4 9 14 18 24 27 21 15 15 18 19 20 22 24 26 28 27 26 27 27 27 27 26 25 22 21 21 22 22 21 21 21 22 24 26 28 29 30 31 33 34 35 36 37 38 39 40 41 42 43 44 45 45 45 46 46 47 48 49 49
Wind_Direction
344 339 337 325 317 316 338 6 350 308 66 35 306 105 357 47 89 65 55 53 57 43 61 64 54 52 68 110 109 84 55 47 160 106 139 141 127 140 166 180 197 197 195 173 165 161 159 162 159 146 139 140 140 140 139 136 136 138 137 133 127 126 96 45 28 14 24 37 46 57 61 77 94 113 125 131 133 130 122 111 107 107 104 102 97 96 99 97 93 90 89 89 89 91 95 97 100
345 340 333 324 322 328 330 355 23 343 39 46 322 110 56 45 64 68 77 72 86 76 70 70 57 46 73 111 101 68 50 37 82 118 124 132 131 151 171 180 199 200 201 179 166 161 158 163 164 157 149 143 140 138 138 137 137 140 140 137 130 139 154 16 360 359 15 32 38 40 57 83 97 110 113 117 119 120 117 108 107 108 104 102 98 96 102 102 98 95 93 93 92 93 95 98 102
343 335 333 336 335 342 326 347 91 29 55 102 307 18 76 74 86 94 94 89 97 92 81 72 55 35 44 79 61 64 88 48 89 123 132 142 143 153 176 191 204 207 195 175 164 161 160 166 167 166 161 152 145 140 139 141 142 144 142 137 132 149 223 298 320 337 9 23 26 34 67 92 100 108 114 118 119 117 114 112 111 107 104 102 101 98 102 106 103 101 97 95 95 95 96 98 102
335 332 337 338 335 347 9 36 129 122 67 153 45 66 109 111 123 113 98 93 98 88 79 66 50 45 45 74 86 86 110 102 106 132 143 152 153 156 181 201 203 198 178 167 163 161 165 167 165 172 171 165 161 151 149 149 150 152 146 144 147 168 234 271 296 319 359 13 19 52 84 93 104 114 122 126 122 116 113 116 113 107 106 106 106 104 104 107 105 103 99 98 98 98 98 99 104
326 334 346 328 317 341 59 51 16 95 340 197 113 139 138 127 134 118 104 96 102 81 70 77 42 69 65 72 94 98 111 120 127 141 146 153 162 163 179 199 192 183 173 162 159 163 169 164 162 173 178 180 180 175 166 159 160 164 158 155 163 185 229 254 276 304 340 8 23 75 100 98 103 118 125 129 125 117 116 116 115 112 111 111 112 113 110 108 106 103 101 101 100 99 100 101 104
332 346 7 332 290 316 29 53 332 356 268 175 122 162 142 130 128 113 108 98 102 89 74 82 64 86 83 75 87 107 144 159 144 146 147 153 171 175 174 184 177 174 175 154 150 161 165 160 162 169 174 184 181 182 180 172 173 176 175 169 168 188 222 248 270 293 325 15 58 100 121 121 108 115 121 129 130 125 127 122 122 123 117 115 115 114 113 110 108 105 104 102 100 99 98 101 106
341 343 1 351 310 322 91 148 275 253 267 154 133 157 137 132 128 117 115 97 87 95 85 76 79 91 96 113 95 88 147 197 151 136 145 156 175 183 174 169 159 168 175 151 151 162 166 164 164 168 167 173 170 174 181 184 189 188 190 189 187 202 224 247 267 285 310 39 95 108 133 140 129 120 125 137 138 135 140 133 126 125 119 119 118 115 113 110 109 107 105 103 100 99 96 99 104
335 327 332 358 347 354 45 245 252 193 264 48 132 142 137 136 131 126 135 127 124 130 109 88 87 81 85 136 105 90 149 186 188 134 151 167 178 181 172 160 154 171 177 171 182 184 185 175 167 178 172 175 173 172 179 183 195 197 197 199 202 213 227 241 252 267 286 100 118 135 167 157 152 132 135 149 150 143 144 143 133 128 123 125 127 120 117 115 113 110 107 104 99 96 93 94 95
328 319 312 4 4 336 323 301 274 193 163 70 107 124 134 138 132 127 129 122 134 140 123 109 89 104 115 104 104 128 159 183 184 152 163 173 177 177 166 157 164 174 182 192 197 194 192 185 179 188 184 187 188 181 183 178 190 207 208 203 206 213 220 231 237 245 222 152 144 161 208 202 183 169 170 165 160 156 150 151 144 137 129 128 132 124 122 117 114 112 106 103 96 95 93 91 90
336 331 306 12 41 341 323 310 310 142 167 166 118 118 127 134 128 125 123 114 122 120 119 128 102 125 125 105 111 138 153 175 169 157 164 156 169 170 154 157 173 175 186 198 196 197 197 195 189 192 195 195 199 191 187 183 188 203 214 214 213 213 211 221 231 228 188 167 161 175 214 220 214 211 202 183 169 172 163 155 147 142 138 136 135 125 123 118 113 111 105 101 97 95 93 92 92
334 340 332 350 18 330 276 293 313 131 164 157 117 121 125 125 114 115 117 114 122 119 129 144 130 125 118 112 125 136 160 185 187 158 142 143 161 154 143 165 188 188 192 197 198 206 204 202 196 199 202 201 208 199 190 187 188 195 207 215 214 212 210 216 220 203 178 171 164 172 205 218 223 221 203 195 187 186 179 166 157 147 142 138 131 122 123 121 117 114 108 105 102 97 93 96 98
325 339 4 353 280 245 225 289 284 170 143 124 130 132 129 126 114 115 119 122 131 122 131 133 186 135 109 116 137 138 160 178 196 172 129 140 151 142 151 180 202 209 205 200 200 205 203 204 203 204 210 214 217 210 205 194 189 194 201 210 211 211 207 206 204 190 179 173 168 171 191 204 206 213 209 200 199 201 194 185 176 160 152 142 133 131 127 126 125 123 119 117 108 99 98 101 102
333 347 40 296 254 272 294 297 256 73 4 302 170 142 135 137 136 138 129 130 136 124 129 132 135 122 101 116 139 146 158 176 194 176 143 147 150 148 170 192 207 219 215 203 196 200 201 200 201 205 212 219 224 221 219 209 202 203 204 212 214 216 207 203 201 193 188 181 177 178 184 190 195 214 226 216 209 211 208 197 187 180 176 164 150 147 142 143 143 138 137 133 118 104 102 99 95
333 346 46 278 314 327 307 300 300 76 336 293 130 141 139 129 133 140 131 115 112 134 144 148 132 110 116 122 147 169 166 181 192 178 165 157 159 164 184 197 206 217 218 211 197 195 199 199 200 205 211 217 225 224 224 221 217 216 217 222 220 217 211 212 211 200 198 192 188 189 190 193 200 215 226 226 216 211 214 210 200 194 191 185 176 165 163 168 162 159 159 150 130 103 82 66 67
326 343 53 296 340 331 299 287 266 115 178 233 142 144 127 95 107 123 129 117 104 138 142 154 158 109 153 169 176 182 178 187 188 185 180 164 171 179 193 202 209 215 214 217 206 198 201 203 203 208 216 219 224 225 227 225 222 225 226 232 230 224 220 220 220 206 202 202 201 200 200 201 205 213 218 222 221 220 223 221 214 208 202 198 196 186 182 188 183 183 185 174 161 117 13 4 7
314 327 53 32 322 329 300 290 326 125 219 194 155 144 112 87 96 98 118 136 130 140 133 127 156 87 169 186 181 177 178 186 186 191 185 171 181 189 199 207 216 217 211 217 216 210 210 209 207 213 221 222 227 227 230 230 227 229 229 233 235 235 232 229 226 214 207 208 208 208 210 211 211 215 219 222 225 231 233 228 227 225 218 209 207 204 198 201 204 207 211 206 209 256 331 328 320
285 336 68 26 285 302 285 298 341 138 233 196 158 145 121 94 96 101 112 127 129 140 129 103 141 160 156 151 154 169 175 184 190 196 192 183 192 197 202 209 217 219 214 217 221 223 225 225 219 220 224 224 227 229 231 235 233 231 232 234 234 236 238 238 235 223 215 212 210 212 215 219 219 220 222 226 230 233 235 233 235 235 227 216 213 212 208 206 212 220 224 225 234 262 299 305 302
205 102 131 221 242 240 238 280 323 113 110 289 167 148 135 138 133 127 122 118 128 140 151 144 149 163 168 145 151 168 173 185 196 198 203 203 203 203 204 209 215 219 219 220 224 231 239 243 242 238 237 235 233 233 233 234 237 234 232 234 235 235 236 240 240 233 224 218 216 217 220 221 224 225 225 229 233 236 237 237 238 237 231 222 217 217 215 211 215 223 226 229 238 255 277 286 291
200 143 157 219 214 243 275 26 25 63 99 283 77 92 125 157 159 143 149 149 144 145 159 171 160 153 170 172 169 177 177 186 200 205 214 217 214 210 206 208 211 215 220 225 230 236 244 249 253 252 250 251 247 245 241 238 240 238 235 238 239 238 239 240 241 241 234 228 226 227 228 226 227 229 229 231 233 237 239 239 237 235 232 229 224 222 223 221 222 226 229 234 237 246 258 265 277
205 191 213 240 232 272 331 77 84 74 90 77 49 45 92 146 159 146 171 160 163 180 178 179 178 178 186 191 187 186 191 195 204 215 224 229 231 226 218 214 215 219 223 228 231 232 237 243 250 253 253 255 255 254 252 247 245 242 239 238 241 241 243 245 245 245 241 237 236 237 238 236 233 234 234 235 236 237 237 236 236 235 233 231 230 226 226 228 230 232 234 238 241 249 252 257 267
200 189 190 230 242 275 6 82 79 68 73 78 61 27 49 122 150 153 149 117 220 207 190 205 215 208 200 200 202 199 203 205 210 221 231 237 242 244 237 232 233 237 237 233 229 228 231 236 241 246 250 253 255 257 257 254 248 245 243 239 240 240 240 245 246 247 246 243 243 244 246 246 244 241 240 238 237 237 236 235 235 235 234 234 234 231 228 230 233 233 236 240 244 250 253 257 262
217 222 221 233 250 261 240 121 71 49 59 75 83 57 59 129 143 168 152 183 228 145 161 216 232 226 214 208 206 203 208 212 217 225 232 240 246 254 251 243 242 241 243 240 235 235 236 237 238 240 245 248 251 255 258 256 251 247 247 244 242 241 240 242 243 245 246 246 245 246 247 251 252 251 250 246 240 239 240 240 239 239 239 240 241 238 233 232 235 235 236 239 241 245 251 258 261
237 258 248 251 257 260 256 218 155 189 87 75 84 92 112 39 336 263 221 243 231 141 81 262 247 225 218 214 202 198 206 212 221 229 235 241 244 253 257 253 249 245 247 249 247 245 245 245 243 242 244 247 248 251 254 255 253 251 250 249 247 245 244 242 243 244 245 246 246 247 248 251 255 256 258 258 253 248 248 249 249 248 245 247 248 247 242 237 237 236 236 238 238 239 246 255 260
232 259 262 262 262 269 278 226 161 175 155 106 115 213 287 316 309 277 249 260 253 246 278 298 304 221 206 208 200 200 208 212 222 230 235 240 242 248 255 258 257 255 253 250 249 248 249 251 250 249 247 248 249 249 250 253 254 252 251 253 252 251 248 246 246 246 245 245 245 246 248 250 253 254 257 260 260 257 254 254 255 256 253 253 254 254 251 244 240 237 237 237 238 239 242 251 256
232 245 254 256 259 266 280 221 178 186 187 213 246 252 263 251 258 268 257 262 253 244 270 281 269 210 196 203 202 206 214 219 225 227 229 231 232 236 240 246 249 251 253 252 253 252 251 252 253 253 251 251 252 252 251 253 254 253 252 253 255 256 255 252 249 249 247 245 245 245 246 249 251 253 254 257 259 260 259 257 256 258 257 254 253 254 254 251 245 241 240 239 240 242 243 247 251
226 235 245 247 247 249 254 229 198 196 199 210 232 246 253 255 262 268 255 252 247 242 254 260 242 204 193 204 214 221 227 233 234 231 231 227 226 232 235 237 241 248 254 255 256 256 255 254 255 255 255 255 253 254 254 254 254 254 255 256 257 257 258 256 252 250 249 246 246 246 247 249 251 252 252 253 256 258 260 260 259 258 255 253 252 252 253 252 250 246 244 242 241 241 245 248 250
235 240 246 249 249 248 252 249 215 198 205 208 209 228 243 247 245 253 248 240 244 246 243 242 237 217 206 214 225 231 237 241 243 237 230 226 225 230 235 236 240 248 252 253 256 258 257 256 258 258 257 256 254 255 256 254 253 255 257 257 258 257 257 257 255 253 252 249 248 247 247 249 252 253 251 250 253 256 257 259 261 259 256 254 254 255 254 253 253 251 248 248 245 243 246 249 251
262 260 262 263 264 260 256 254 220 191 202 210 210 233 247 246 234 230 232 230 238 246 244 238 234 232 226 223 226 231 237 240 240 237 233 231 232 236 240 241 244 247 249 254 258 256 256 256 258 257 256 256 255 257 258 256 255 256 256 255 256 257 257 256 256 255 254 253 251 248 247 248 250 252 252 251 252 254 255 255 257 259 259 258 257 258 257 256 254 253 251 250 250 248 247 247 250
267 266 274 273 275 267 249 242 205 181 196 204 205 271 256 236 232 234 238 239 239 243 247 239 231 232 235 234 232 232 237 240 235 235 240 240 244 251 251 250 248 249 254 259 257 253 254 256 256 255 254 254 255 258 260 261 260 259 259 258 256 256 255 256 256 257 257 256 254 251 248 247 248 249 250 251 252 254 254 254 254 255 258 259 259 258 257 257 255 254 253 252 251 249 248 248 249
256 248 247 276 295 270 227 218 194 183 204 186 171 273 243 228 236 237 245 247 243 241 243 241 232 228 234 242 240 237 237 237 234 238 246 247 247 253 256 257 255 256 261 259 256 255 255 254 255 254 252 252 255 258 259 262 264 263 263 262 259 257 257 258 258 258 258 257 256 255 252 249 248 248 248 249 251 254 255 254 253 253 254 256 258 257 256 256 255 255 254 254 252 251 252 252 251
228 233 247 216 254 252 192 193 181 174 213 184 162 247 248 246 247 240 246 250 244 238 236 236 232 229 236 243 241 241 238 235 236 242 250 254 252 253 256 259 260 261 261 257 257 259 259 256 255 254 253 252 253 255 259 263 267 267 266 264 261 259 258 259 259 260 259 258 257 257 255 252 249 248 248 247 248 252 255 256 255 254 252 252 255 257 256 254 254 255 254 253 253 253 255 255 254
172 206 239 198 219 260 219 212 193 189 220 185 168 247 263 255 257 250 247 248 242 233 231 229 229 233 237 240 239 240 242 240 239 245 252 256 256 257 259 261 262 261 260 259 259 260 260 259 257 257 256 254 253 255 259 264 267 267 266 263 260 258 257 257 259 261 261 259 258 258 258 255 251 249 249 248 247 250 254 257 258 255 252 251 252 254 256 255 254 254 253 252 252 253 256 256 256
239 207 209 194 221 249 300 263 214 204 208 184 187 225 260 246 258 256 247 251 244 230 226 223 223 229 232 234 237 240 246 246 242 244 251 254 255 258 262 265 266 265 263 262 262 261 261 260 259 259 259 259 259 259 261 263 266 266 265 262 258 256 256 257 259 260 260 260 260 260 260 258 256 252 250 249 249 250 253 257 258 257 254 252 252 252 254 256 256 255 254 252 251 253 254 255 256
240 237 221 222 218 202 234 272 226 201 189 198 211 222 232 249 267 261 262 282 250 224 221 221 221 226 230 234 238 241 245 245 244 244 247 251 254 257 262 267 270 269 266 263 263 263 263 262 261 262 264 264 264 262 262 264 265 265 263 260 257 256 256 258 259 258 259 261 262 264 262 260 258 255 252 250 250 250 251 254 256 257 256 254 253 253 254 255 255 255 254 252 251 252 253 255 257
197 210 212 234 236 220 216 251 226 188 191 209 212 226 237 250 267 260 262 281 266 226 218 216 220 225 230 235 239 241 243 242 245 248 250 253 256 259 263 268 272 270 267 265 265 263 263 262 261 262 263 263 263 263 263 263 263 262 261 258 255 254 254 255 256 258 260 261 263 265 264 262 260 258 255 252 251 251 251 251 253 254 255 255 254 253 253 254 255 255 254 253 252 253 255 256 256
201 205 192 200 225 238 227 245 228 185 198 214 208 224 234 241 257 259 259 264 262 251 237 224 224 227 230 234 238 241 242 243 247 251 255 257 259 263 265 269 271 270 269 267 266 264 261 260 259 260 260 261 262 262 262 260 258 258 258 255 254 254 254 254 255 257 260 262 265 265 264 263 261 259 257 254 252 252 252 252 252 253 254 254 254 254 254 255 257 257 257 256 254 254 255 255 254
221 196 206 210 219 244 233 254 258 200 204 219 216 226 231 234 247 252 252 256 256 251 246 240 236 236 235 234 234 236 239 244 249 252 253 253 256 260 263 266 268 266 266 265 264 263 262 261 260 261 262 263 263 262 262 260 259 259 258 257 259 260 258 256 257 258 260 265 267 266 265 265 263 259 257 255 253 252 252 252 252 253 253 254 255 256 257 257 257 257 257 256 254 253 253 253 252
242 205 222 228 218 244 247 256 297 267 229 236 226 232 240 240 245 250 246 243 244 240 240 243 242 242 241 238 238 241 244 248 251 251 250 251 253 256 259 260 260 262 263 262 264 265 266 265 264 265 266 264 264 264 264 263 264 264 264 265 268 267 263 261 262 263 265 267 268 267 267 267 266 263 258 256 254 253 252 252 253 253 253 255 257 257 256 256 255 254 253 253 252 252 253 253 249
244 233 240 263 226 268 285 276 326 321 241 258 262 247 248 247 249 254 247 232 239 244 245 247 244 243 243 244 246 247 247 248 249 249 251 253 254 256 258 258 257 259 263 264 265 266 267 267 267 267 267 266 266 265 264 264 266 268 269 269 269 267 265 265 265 265 265 266 266 266 266 266 265 264 260 256 254 254 252 252 254 254 254 255 256 257 256 255 254 253 252 252 252 252 253 252 248
234 230 228 251 238 252 273 285 353 339 280 309 323 291 266 260 265 267 254 241 245 255 257 258 254 251 252 254 255 253 251 250 251 252 254 256 257 257 258 260 259 258 261 263 264 264 265 266 268 268 267 268 267 266 265 265 266 267 267 267 266 264 263 263 262 262 262 262 263 264 264 264 263 263 261 258 255 254 254 253 253 254 255 255 256 257 257 257 256 254 253 252 250 249 251 252 249
226 224 225 236 226 208 222 257 3 341 317 319 323 303 275 247 252 264 264 255 253 257 258 259 257 255 257 259 259 259 258 257 258 258 260 259 258 259 262 263 263 260 261 264 265 266 267 267 268 269 269 269 267 266 266 265 264 262 261 260 258 257 256 255 255 257 258 260 262 265 265 264 263 263 262 260 258 256 255 254 254 253 254 255 255 256 258 259 258 256 254 253 251 250 252 254 252
225 220 217 220 212 198 170 103 59 3 305 266 245 275 276 241 233 239 252 265 263 260 258 259 259 259 258 258 258 258 258 259 261 262 263 262 261 263 265 265 263 262 263 266 267 268 270 271 271 270 269 268 267 266 266 265 262 260 258 256 255 255 255 256 258 261 263 265 269 271 269 266 265 266 265 263 262 259 257 256 254 253 253 254 255 256 258 259 258 258 256 255 254 253 253 252 251
228 227 208 203 199 196 188 153 130 164 250 239 195 232 275 306 262 242 239 261 266 254 249 252 257 261 261 260 260 260 260 260 260 262 263 264 265 267 268 267 265 265 267 267 267 267 269 271 270 269 269 267 266 265 264 263 262 260 259 258 259 259 260 263 265 267 268 270 272 273 270 268 267 267 267 266 264 263 260 258 256 254 253 253 254 255 257 258 259 260 259 257 256 254 251 248 250
232 344 194 193 195 195 191 174 166 197 258 292 260 225 263 284 262 251 244 265 274 262 249 252 256 259 261 262 263 262 261 259 258 261 264 267 269 270 271 269 267 267 269 266 263 264 267 268 269 269 269 268 266 265 264 263 263 262 261 260 260 261 263 266 268 267 268 270 271 272 271 270 268 268 268 267 266 265 263 261 259 257 255 254 254 254 256 258 259 259 258 257 256 253 251 250 251
169 44 61 127 171 179 167 159 184 222 26 280 264 211 245 263 250 247 238 241 263 265 256 251 255 259 260 263 264 260 254 251 255 260 265 272 274 275 275 271 268 272 273 268 265 267 269 268 265 264 265 266 267 267 265 264 264 264 263 262 262 262 264 266 266 266 267 268 269 270 270 269 269 269 268 267 266 265 264 263 261 259 258 257 255 256 257 258 258 258 258 257 256 255 253 252 251
160 145 82 75 66 65 104 148 163 139 183 235 223 180 231 265 229 217 223 219 233 252 257 248 254 261 264 265 261 252 243 246 254 261 267 272 273 273 275 273 278 285 283 278 275 272 269 264 261 262 263 267 270 269 267 265 265 265 263 263 264 265 265 264 264 264 265 265 266 267 267 267 268 268 268 268 266 265 264 264 263 262 262 260 258 258 258 258 258 258 258 258 258 257 256 254 253
148 126 62 33 27 69 69 42 123 136 223 232 202 184 207 260 236 189 188 219 213 226 256 264 263 262 262 262 256 244 237 246 259 263 263 261 262 283 294 295 294 292 288 282 280 277 271 266 264 264 265 267 270 270 268 267 266 265 265 265 266 267 267 266 265 265 265 264 265 266 267 267 268 268 269 269 268 266 264 264 264 264 264 262 260 259 258 259 259 259 259 259 259 258 258 256 256
139 89 60 20 352 40 54 8 95 184 229 219 181 184 191 226 249 213 221 249 214 206 237 260 265 260 258 257 253 242 236 255 271 255 241 243 275 342 337 330 320 315 311 300 297 296 288 280 271 268 268 269 269 268 267 266 265 265 265 266 266 267 267 267 266 266 266 265 266 267 267 267 268 268 269 269 269 267 265 264 264 265 264 263 262 261 260 259 259 259 258 258 258 259 259 257 256
150 120 126 115 257 281 58 210 195 212 244 227 172 181 192 228 245 243 252 273 270 259 264 268 269 268 266 260 249 234 233 283 291 233 231 266 22 12 9 22 20 10 10 15 11 359 347 329 305 291 286 279 273 269 266 265 264 264 265 266 266 266 266 266 267 268 268 267 267 267 267 267 268 269 270 270 271 271 268 267 266 266 267 268 266 264 262 261 259 258 258 258 258 259 259 258 257
178 170 166 173 189 190 177 191 99 195 264 286 197 177 201 252 250 230 229 245 256 260 264 271 275 268 263 260 236 223 269 302 290 242 259 4 73 46 49 61 55 49 50 48 41 35 32 28 21 11 359 333 304 287 277 272 268 267 267 267 267 266 266 266 267 269 270 270 269 268 268 268 269 270 271 273 275 274 273 271 270 268 269 269 268 266 265 263 261 259 258 259 259 260 260 259 259
186 172 160 177 179 183 187 179 185 177 255 298 243 177 193 223 239 203 199 227 250 262 271 279 283 261 251 258 266 281 296 299 281 263 273 71 98 86 76 71 61 53 48 39 35 33 31 30 29 27 23 18 8 350 325 302 287 278 272 270 269 268 268 268 269 270 271 271 270 269 269 269 269 270 271 274 275 274 274 274 273 271 270 269 268 267 266 265 263 261 259 259 259 260 260 259 259
189 136 149 200 189 171 183 178 167 142 99 278 205 213 217 217 263 248 233 261 275 284 285 284 290 270 252 263 277 282 288 284 268 255 171 107 105 95 78 62 49 39 29 20 20 22 23 21 20 20 18 15 14 11 4 353 334 313 294 282 276 272 271 271 271 272 273 272 272 271 271 270 270 270 271 271 272 272 273 273 274 273 272 271 269 267 266 265 264 262 260 259 259 259 259 259 259
166 154 174 201 113 127 128 241 120 109 225 225 186 239 269 273 281 268 256 267 276 286 281 257 264 267 248 252 262 266 271 262 236 178 123 109 99 88 66 46 34 25 18 10 6 10 16 17 14 12 11 9 6 4 3 1 356 349 336 316 297 284 277 275 275 276 276 276 275 273 273 272 271 270 270 269 268 269 270 271 272 272 272 271 269 268 266 265 264 263 262 261 260 260 260 259 259
146 174 172 125 49 97 131 183 141 143 230 237 202 229 233 182 259 282 258 242 241 258 269 239 237 249 246 252 259 258 245 202 155 139 127 113 98 78 56 38 23 13 7 1 354 351 357 6 8 4 359 359 359 357 356 355 353 350 347 341 331 313 296 286 281 278 277 277 276 275 275 274 272 271 269 268 267 267 268 270 270 271 271 270 269 268 267 266 264 263 262 262 262 262 260 259 259
142 164 164 147 140 192 169 174 171 175 214 240 214 225 215 191 233 258 246 228 217 217 245 246 239 241 242 250 256 249 207 165 149 145 135 119 101 74 53 33 14 5 359 353 346 337 333 341 352 356 352 346 344 344 346 348 348 347 343 338 335 330 323 310 296 286 280 276 275 276 276 276 275 274 271 268 267 267 268 269 269 270 270 269 269 268 267 266 264 263 263 263 263 262 260 260 259
77 137 170 190 206 193 178 171 178 180 195 219 207 208 223 216 223 233 232 228 226 229 243 249 243 239 240 243 241 219 176 161 158 154 144 131 114 82 48 13 359 358 357 350 340 333 326 324 330 340 343 339 333 332 334 336 338 341 341 337 331 326 325 322 313 301 290 284 280 277 276 275 275 275 273 271 270 269 269 270 270 269 269 269 269 268 267 266 265 264 264 264 264 262 261 261 261
145 156 183 202 194 154 138 159 161 143 161 213 235 234 251 242 215 217 224 226 231 241 257 269 256 226 225 228 209 175 162 162 163 162 160 152 132 83 352 334 334 341 345 345 336 326 322 321 322 327 333 331 325 323 327 329 329 330 332 334 332 325 320 318 317 311 301 295 291 284 279 277 276 275 275 274 274 273 272 271 270 269 268 268 268 268 267 266 265 265 265 264 264 263 262 262 262
174 183 184 187 180 139 139 190 179 152 170 178 197 239 255 246 203 205 217 224 226 236 250 243 176 132 126 135 147 153 160 166 167 169 171 171 161 329 325 323 322 326 331 336 334 321 312 314 319 323 326 323 317 315 320 324 324 324 324 326 329 327 320 314 314 313 307 299 292 289 287 283 281 280 278 276 276 275 275 273 271 269 268 267 267 267 267 266 265 265 265 265 265 264 263 263 262